Time,TemperatureF,DewpointF,PressureIn,WindDirection,WindDirectionDegrees,WindSpeedMPH,WindSpeedGustMPH,Humidity,HourlyPrecipIn,Conditions,Clouds,dailyrainin,SoftwareType,DateUTC
2013-12-26 00:02:00,11.0,7.0,-100.00,WSW,240,0.0,0.0,86,-99.99,,,-99.99,,2013-12-26 06:02:00,
2013-12-26 00:42:00,10.0,7.0,-100.00,SW,230,0.0,0.0,85,-99.99,,,-99.99,,2013-12-26 06:42:00,
2013-12-26 00:52:00,10.0,7.0,-100.00,SW,230,0.0,0.0,85,-99.99,,,-99.99,,2013-12-26 06:52:00,
2013-12-26 01:01:00,10.0,7.0,-100.00,SW,230,0.0,0.0,85,-99.99,,,-99.99,,2013-12-26 07:01:00,
2013-12-26 01:42:00,9.0,6.0,-100.00,SSW,195,0.0,0.0,87,-99.99,,,-99.99,,2013-12-26 07:42:00,
2013-12-26 01:52:00,9.0,6.0,-100.00,SSW,195,0.0,0.0,87,-99.99,,,-99.99,,2013-12-26 07:52:00,
2013-12-26 02:02:00,9.0,6.0,-100.00,SSW,195,0.0,0.0,87,-99.99,,,-99.99,,2013-12-26 08:02:00,
2013-12-26 02:42:00,6.0,4.0,-100.00,SSW,210,0.0,0.0,89,-99.99,,,-99.99,,2013-12-26 08:42:00,
2013-12-26 02:53:00,6.0,4.0,-100.00,SSW,210,0.0,0.0,89,-99.99,,,-99.99,,2013-12-26 08:53:00,
2013-12-26 03:02:00,6.0,4.0,-100.00,SSW,210,0.0,0.0,89,-99.99,,,-99.99,,2013-12-26 09:02:00,
2013-12-26 03:43:00,6.0,4.0,-100.00,ESE,105,0.0,0.0,90,-99.99,,,-99.99,,2013-12-26 09:43:00,
2013-12-26 03:53:00,6.0,4.0,-100.00,ESE,105,0.0,0.0,90,-99.99,,,-99.99,,2013-12-26 09:53:00,
2013-12-26 04:03:00,6.0,4.0,-100.00,ESE,105,0.0,0.0,90,-99.99,,,-99.99,,2013-12-26 10:03:00,
2013-12-26 04:43:00,9.0,6.0,-100.00,South,170,0.0,0.0,90,-99.99,,,-99.99,,2013-12-26 10:43:00,
2013-12-26 04:52:00,9.0,6.0,-100.00,South,170,0.0,0.0,90,-99.99,,,-99.99,,2013-12-26 10:52:00,
2013-12-26 05:02:00,9.0,6.0,-100.00,South,170,0.0,0.0,90,-99.99,,,-99.99,,2013-12-26 11:02:00,
2013-12-26 05:43:00,10.0,7.0,-100.00,South,180,0.0,0.0,90,-99.99,,,-99.99,,2013-12-26 11:43:00,
2013-12-26 05:52:00,10.0,7.0,-100.00,South,180,0.0,0.0,90,-99.99,,,-99.99,,2013-12-26 11:52:00,
2013-12-26 06:02:00,10.0,7.0,-100.00,South,180,0.0,0.0,90,-99.99,,,-99.99,,2013-12-26 12:02:00,
2013-12-26 06:42:00,10.0,8.0,-100.00,East,80,0.0,0.0,90,-99.99,,,-99.99,,2013-12-26 12:42:00,
2013-12-26 06:53:00,10.0,8.0,-100.00,East,80,0.0,0.0,90,-99.99,,,-99.99,,2013-12-26 12:53:00,
2013-12-26 07:02:00,10.0,8.0,-100.00,East,80,0.0,0.0,90,-99.99,,,-99.99,,2013-12-26 13:02:00,
2013-12-26 07:42:00,11.0,8.0,-100.00,ESE,120,0.0,0.0,90,-99.99,,,-99.99,,2013-12-26 13:42:00,
2013-12-26 07:53:00,11.0,8.0,-100.00,ESE,120,0.0,0.0,90,-99.99,,,-99.99,,2013-12-26 13:53:00,
2013-12-26 08:01:00,11.0,8.0,-100.00,ESE,120,0.0,0.0,90,-99.99,,,-99.99,,2013-12-26 14:01:00,
2013-12-26 08:42:00,11.0,9.0,-100.00,East,85,0.0,0.0,90,-99.99,,,-99.99,,2013-12-26 14:42:00,
2013-12-26 08:52:00,11.0,9.0,-100.00,East,85,0.0,0.0,90,-99.99,,,-99.99,,2013-12-26 14:52:00,
2013-12-26 09:02:00,11.0,9.0,-100.00,East,85,0.0,0.0,90,-99.99,,,-99.99,,2013-12-26 15:02:00,
2013-12-26 09:43:00,12.0,9.0,-100.00,East,80,0.0,0.0,89,-99.99,,,-99.99,,2013-12-26 15:43:00,
2013-12-26 09:53:00,12.0,9.0,-100.00,East,80,0.0,0.0,89,-99.99,,,-99.99,,2013-12-26 15:53:00,
2013-12-26 10:03:00,12.0,9.0,-100.00,East,80,0.0,0.0,89,-99.99,,,-99.99,,2013-12-26 16:03:00,
2013-12-26 10:42:00,13.0,9.0,-100.00,ENE,70,0.0,0.0,84,-99.99,,,-99.99,,2013-12-26 16:42:00,
2013-12-26 10:53:00,13.0,9.0,-100.00,ENE,70,0.0,0.0,84,-99.99,,,-99.99,,2013-12-26 16:53:00,
2013-12-26 11:02:00,13.0,9.0,-100.00,ENE,70,0.0,0.0,84,-99.99,,,-99.99,,2013-12-26 17:02:00,
2013-12-26 11:43:00,15.0,10.0,-100.00,ENE,70,0.0,0.0,79,-99.99,,,-99.99,,2013-12-26 17:43:00,
2013-12-26 11:52:00,15.0,10.0,-100.00,ENE,70,0.0,0.0,79,-99.99,,,-99.99,,2013-12-26 17:52:00,
2013-12-26 12:02:00,15.0,10.0,-100.00,ENE,70,0.0,0.0,79,-99.99,,,-99.99,,2013-12-26 18:02:00,
2013-12-26 12:42:00,17.0,10.0,-100.00,East,90,0.0,0.0,75,-99.99,,,-99.99,,2013-12-26 18:42:00,
2013-12-26 12:52:00,17.0,10.0,-100.00,East,90,0.0,0.0,75,-99.99,,,-99.99,,2013-12-26 18:52:00,
2013-12-26 13:02:00,17.0,10.0,-100.00,East,90,0.0,0.0,75,-99.99,,,-99.99,,2013-12-26 19:02:00,
2013-12-26 13:42:00,17.0,10.0,-100.00,East,85,0.0,0.0,74,-99.99,,,-99.99,,2013-12-26 19:42:00,
2013-12-26 13:52:00,17.0,10.0,-100.00,East,85,0.0,0.0,74,-99.99,,,-99.99,,2013-12-26 19:52:00,
2013-12-26 14:02:00,17.0,10.0,-100.00,East,85,0.0,0.0,74,-99.99,,,-99.99,,2013-12-26 20:02:00,
2013-12-26 14:42:00,18.0,11.0,-100.00,ENE,70,0.0,0.0,72,-99.99,,,-99.99,,2013-12-26 20:42:00,
2013-12-26 14:52:00,18.0,11.0,-100.00,ENE,70,0.0,0.0,72,-99.99,,,-99.99,,2013-12-26 20:52:00,
2013-12-26 15:02:00,18.0,11.0,-100.00,ENE,70,0.0,0.0,72,-99.99,,,-99.99,,2013-12-26 21:02:00,
2013-12-26 15:43:00,19.0,11.0,-100.00,East,80,0.0,1.0,73,-99.99,,,-99.99,,2013-12-26 21:43:00,
2013-12-26 15:53:00,19.0,11.0,-100.00,East,80,0.0,1.0,73,-99.99,,,-99.99,,2013-12-26 21:53:00,
2013-12-26 16:03:00,19.0,11.0,-100.00,East,80,0.0,1.0,73,-99.99,,,-99.99,,2013-12-26 22:03:00,
2013-12-26 16:43:00,19.0,12.0,-100.00,ENE,75,0.0,0.0,73,-99.99,,,-99.99,,2013-12-26 22:43:00,
2013-12-26 16:52:00,19.0,12.0,-100.00,ENE,75,0.0,0.0,73,-99.99,,,-99.99,,2013-12-26 22:52:00,
2013-12-26 17:03:00,19.0,12.0,-100.00,ENE,75,0.0,0.0,73,-99.99,,,-99.99,,2013-12-26 23:03:00,
2013-12-26 17:10:00,18.0,12.0,-100.00,NNE,15,0.0,0.0,77,-99.99,,,-99.99,,2013-12-26 23:10:00,
2013-12-26 17:42:00,18.0,12.0,-100.00,NNE,15,0.0,0.0,77,-99.99,,,-99.99,,2013-12-26 23:42:00,
2013-12-26 17:53:00,18.0,12.0,-100.00,NNE,15,0.0,0.0,77,-99.99,,,-99.99,,2013-12-26 23:53:00,
2013-12-26 18:02:00,18.0,12.0,-100.00,NNE,15,0.0,0.0,77,-99.99,,,-99.99,,2013-12-27 00:02:00,
2013-12-26 18:42:00,18.0,14.0,-100.00,NW,310,0.0,0.0,82,-99.99,,,-99.99,,2013-12-27 00:42:00,
2013-12-26 18:52:00,18.0,14.0,-100.00,NW,310,0.0,0.0,82,-99.99,,,-99.99,,2013-12-27 00:52:00,
2013-12-26 19:02:00,18.0,14.0,-100.00,NW,310,0.0,0.0,82,-99.99,,,-99.99,,2013-12-27 01:02:00,
2013-12-26 19:42:00,18.0,14.0,-100.00,NNE,20,0.0,0.0,84,-99.99,,,-99.99,,2013-12-27 01:42:00,
2013-12-26 19:52:00,18.0,14.0,-100.00,NNE,20,0.0,0.0,84,-99.99,,,-99.99,,2013-12-27 01:52:00,
2013-12-26 20:01:00,18.0,14.0,-100.00,NNE,20,0.0,0.0,84,-99.99,,,-99.99,,2013-12-27 02:01:00,
2013-12-26 20:11:00,16.0,13.0,-100.00,NE,40,0.0,0.0,88,-99.99,,,-99.99,,2013-12-27 02:11:00,
2013-12-26 20:42:00,16.0,13.0,-100.00,NE,40,0.0,0.0,88,-99.99,,,-99.99,,2013-12-27 02:42:00,
2013-12-26 20:52:00,16.0,13.0,-100.00,NE,40,0.0,0.0,88,-99.99,,,-99.99,,2013-12-27 02:52:00,
2013-12-26 21:02:00,16.0,13.0,-100.00,NE,40,0.0,0.0,88,-99.99,,,-99.99,,2013-12-27 03:02:00,
2013-12-26 21:10:00,15.0,12.0,-100.00,ENE,60,0.0,0.0,89,-99.99,,,-99.99,,2013-12-27 03:10:00,
2013-12-26 21:43:00,15.0,12.0,-100.00,ENE,60,0.0,0.0,89,-99.99,,,-99.99,,2013-12-27 03:43:00,
2013-12-26 21:53:00,15.0,12.0,-100.00,ENE,60,0.0,0.0,89,-99.99,,,-99.99,,2013-12-27 03:53:00,
2013-12-26 22:03:00,15.0,12.0,-100.00,ENE,60,0.0,0.0,89,-99.99,,,-99.99,,2013-12-27 04:03:00,
2013-12-26 22:43:00,14.0,12.0,-100.00,East,95,0.0,0.0,91,-99.99,,,-99.99,,2013-12-27 04:43:00,
2013-12-26 23:11:00,8.0,6.0,-100.00,ENE,70,0.0,0.0,92,-99.99,,,-99.99,,2013-12-27 05:11:00,
2013-12-26 23:42:00,8.0,6.0,-100.00,ENE,70,0.0,0.0,92,-99.99,,,-99.99,,2013-12-27 05:42:00,
2013-12-26 23:52:00,8.0,6.0,-100.00,ENE,70,0.0,0.0,92,-99.99,,,-99.99,,2013-12-27 05:52:00,